Regional Weather Roundup
Issued by NWS

Home | Current Version | Previous Version | Graphics & Text | Print | Product List | Glossary On
Versions: 1 2 3 4 5 6 7 8 9 10 11 12 13 14 15 16 17 18 19 20 21 22 23 24 25 26 27 28 29 30 31 32 33 34 35 36 37 38 39 40 41 42 43 44 45 46 47 48 49 50
000
ASUS43 KFSD 300710
RWRSD

WEATHER ROUNDUP FOR SOUTH DAKOTA
NATIONAL WEATHER SERVICE SIOUX FALLS SD
200 AM CDT MON MAR 30 2015

NOTE: "FAIR" INDICATES FEW OR NO CLOUDS BELOW 12,000 FEET WITH NO
SIGNIFICANT WEATHER AND/OR OBSTRUCTIONS TO VISIBILITY.


SDZ001>005-009-010-012>017-300800-
NORTHWEST AND NORTH CENTRAL SOUTH DAKOTA

CITY           SKY/WX    TMP DP  RH WIND       PRES   REMARKS
BUFFALO          N/A     39  27  62 W8        29.92S
FAITH            N/A     40  26  57 SW10      29.98F
MOBRIDGE       CLOUDY    42  32  67 SE10      29.94F
$$

SDZ012>016-024>037-041>051-057-063-072>074-300800-
SOUTHWEST AND SOUTH CENTRAL SOUTH DAKOTA

CITY           SKY/WX    TMP DP  RH WIND       PRES   REMARKS
RAPID CTY ARPT CLEAR     44  27  51 SW3       30.01F
PIERRE         MOCLDY    46  29  51 CALM      29.98F
CUSTER         CLEAR     37  20  50 W6        30.07F
ELLSWORTH AFB  CLEAR     45  27  49 W6        30.00F
PHILIP         PTCLDY    34  23  64 CALM      30.01F
PINE RIDGE     PTCLDY    36  25  64 CALM      30.05R
SPEARFISH      FAIR      46  23  39 W10       30.03F
WINNER         FAIR      48  21  34 SW13      30.04S
$$

SDZ004>011-016>023-039-040-300800-
NORTHEAST SOUTH DAKOTA

CITY           SKY/WX    TMP DP  RH WIND       PRES   REMARKS
ABERDEEN       MOCLDY    34  26  72 SW5       29.97F WCI  30
WATERTOWN      PTCLDY    31  25  78 S5        29.99F WCI  26
SISSETON         N/A     41  28  60 W6        29.94F
$$

SDZ017-020-022-023-036>040-048>070-300800-
SOUTHEAST SOUTH DAKOTA

CITY           SKY/WX    TMP DP  RH WIND       PRES   REMARKS
SIOUX FALLS    MOCLDY    35  22  58 CALM      30.04S
HURON          CLOUDY    39  24  55 SW6       30.01F
CHAMBERLAIN    MOCLDY    41  24  50 SW3       30.03F
MITCHELL       MOCLDY    43  24  47 SW5       30.03F
YANKTON        MOCLDY    43  21  42 S3        30.06F
$$

ABBREVIATIONS USED IN REMARKS
   TC - TEMPERATURE IN CELSIUS
  WCI - WIND CHILL INDEX
   HX - HEAT INDEX
  VSB - VISIBILITY




USA.gov is the U.S. government's official web portal to all federal, state and local government web resources and services.